Flag for United Kingdom Weather past 2 weeks in Dundee, Scotland, United Kingdom

Now
39 °F

Passing clouds.


Feels Like: 28 °F
Forecast: N/A
Wind: 25 mph from West

Location: Dundee / Riverside

Current Time: Mar 1, 2015 at 9:04:34 PM

Latest Report: Mar 1, 2015 at 7:50 PM


Visibility: N/A

Pressure: 29.09 "Hg

Humidity: 87%

Dew point: 36 °F

Location of DundeeLocation

Historic Weather in Dundee — Graph

°F

Dundee temperature yesterday

Maximum temperature yesterday: 46 °F (at 1:50 PM)
Minimum temperature yesterday: 41 °F (at 9:50 AM)
Average temperature yesterday: 44 °F

Past Weeks' High & Low Weather Summary

 TemperatureHumidityPressure
High50 °F (Feb 18, 4:20 PM)100% (Feb 16, 8:20 AM)30.39 "Hg (Feb 16, 8:20 AM)
Low32 °F (Feb 25, 6:20 AM)57% (Feb 21, 12:50 PM)28.62 "Hg (Feb 23, 4:50 PM)
Average42 °F84%29.58 "Hg
* Reported Feb 15 9:20 AM — Mar 1 7:20 PM, Dundee, Weather by CustomWeather, © 2015

Note: Actual official high and low records may vary slightly from our data, if they occured in-between our weather recording intervals... More about our weather records

Advertising

Dundee weather history for previous 24 hours

 ConditionsComfort  
Time TempWeatherWind HumidityBarometerVisibility
7:20 PM
Sun, Mar 1
39 °FPassing clouds.25 mph87%29.09 "HgN/A
6:50 PM39 °FPassing clouds.24 mph87%29.06 "HgN/A
5:50 PM39 °FPassing clouds.25 mph87%29.06 "HgN/A
5:20 PM41 °FPassing clouds.25 mph81%29.06 "HgN/A
4:50 PM43 °FPassing clouds.25 mph76%29.06 "HgN/A
4:20 PM43 °FPassing clouds.24 mph76%29.06 "HgN/A
3:20 PM43 °FPassing clouds.29 mph76%29.06 "HgN/A
2:50 PM45 °FPassing clouds.25 mph71%29.06 "HgN/A
2:20 PM43 °FScattered clouds.25 mph81%29.06 "HgN/A
1:50 PM43 °FScattered showers. Scattered clouds.28 mph81%29.06 "HgN/A
1:20 PM43 °FScattered showers. Scattered clouds.26 mph87%29.06 "HgN/A
12:50 PM43 °FSprinkles. Scattered clouds.29 mph87%29.06 "HgN/A
12:20 PM45 °FScattered showers. Scattered clouds.24 mph81%29.06 "HgN/A
11:50 AM43 °FScattered showers. Scattered clouds.28 mph87%29.06 "HgN/A
11:20 AM43 °FScattered clouds.26 mph87%29.06 "HgN/A
10:50 AM43 °FScattered clouds.23 mph81%29.03 "HgN/A
10:20 AM43 °FSprinkles. Scattered clouds.23 mph81%29.03 "HgN/A
9:50 AM43 °FScattered clouds.25 mph81%29.03 "HgN/A
9:20 AM43 °FScattered clouds.16 mph87%29.03 "HgN/A
8:50 AM41 °FPassing clouds.17 mph87%29.03 "HgN/A
Weather by CustomWeather, © 2015

See weather overviewHow to use our weather pages